IW0DNR Weather Reports


Display with metric or nautical units.
time (UTC)temp
F
wind
direction
speed
MPH
gust
MPH
rain 1hr
in
rain 24hr
in
rain mn
in
humidity
%
barometer
mb
20260906061536 76 360 1.0 4.0 0.00 0.00 0.00 71 1018.3
20260906060035 75 36 3.0 6.0 0.00 0.00 0.00 72 1018.1
20260906054532 74 22 3.0 6.0 0.00 0.00 0.00 73 1017.9
20260906053030 74 22 2.0 4.0 0.00 0.00 0.00 74 1017.8
20260906051528 74 13 2.0 5.0 0.00 0.00 0.00 75 1017.7
20260906050028 74 34 3.0 6.0 0.00 0.00 0.00 74 1017.7
20260906044527 74 12 2.0 5.0 0.00 0.00 0.00 75 1017.6
20260906043030 74 12 2.0 5.0 0.00 0.00 0.00 75 1017.6
20260906041524 73 340 3.0 6.0 0.00 0.00 0.00 76 1017.5
20260906040029 73 24 2.0 5.0 0.00 0.00 0.00 77 1017.4
20260906034533 73 18 1.0 3.0 0.00 0.00 0.00 78 1017.4
20260906033026 73 29 2.0 5.0 0.00 0.00 0.00 77 1017.3
20260906031519 74 28 2.0 5.0 0.00 0.00 0.00 78 1017.3
20260906030018 73 26 2.0 3.0 0.00 0.00 0.00 78 1017.4
20260906024516 74 26 1.0 4.0 0.00 0.00 0.00 79 1017.4
20260906023016 74 26 1.0 4.0 0.00 0.00 0.00 79 1017.5
20260906021514 74 27 1.0 3.0 0.00 0.00 0.00 80 1017.5
20260906020012 74 27 1.0 2.0 0.00 0.00 0.00 80 1017.5
20260906014524 74 27 0.0 1.0 0.00 0.00 0.00 81 1017.4
20260906013015 74 27 0.0 1.0 0.00 0.00 0.00 82 1017.4
20260906011508 74 27 0.0 1.0 0.00 0.00 0.00 84 1017.3
20260906010006 74 27 0.0 1.0 0.00 0.00 0.00 86 1017.4
20260906004505 75 27 0.0 1.0 0.00 0.00 0.00 86 1017.5
20260906003002 75 27 0.0 0.0 0.00 0.00 0.00 86 1017.6
20260906001502 75 27 0.0 0.0 0.00 0.00 0.00 86 1017.6
20260906000106 75 27 0.0 1.0 0.00 0.00 0.00 86 1017.5
20260905234608 75 27 0.0 0.0 0.00 0.00 0.00 86 1017.5
20260905233100 75 27 0.0 2.0 0.00 0.00 0.00 86 1017.5
20260905231558 75 27 0.0 2.0 0.00 0.00 0.00 86 1017.5
20260905230057 76 27 0.0 2.0 0.00 0.00 0.00 86 1017.5
20260905224556 76 27 1.0 3.0 0.00 0.00 0.00 86 1017.5
20260905223055 76 27 0.0 2.0 0.00 0.00 0.00 86 1017.5
20260905221553 76 27 0.0 3.0 0.00 0.00 0.00 86 1017.5
20260905220051 76 28 0.0 2.0 0.00 0.00 0.00 86 1017.3
20260905214551 76 28 1.0 3.0 0.00 0.00 0.00 86 1017.4
20260905213050 76 28 0.0 3.0 0.00 0.00 0.00 86 1017.3
20260905211549 76 28 0.0 2.0 0.00 0.00 0.00 85 1017.2
20260905210050 77 28 0.0 4.0 0.00 0.00 0.00 85 1017.1
20260905204559 77 28 1.0 3.0 0.00 0.00 0.00 85 1017.1
20260905203055 77 28 1.0 2.0 0.00 0.00 0.00 84 1017.1
20260905201548 77 28 0.0 3.0 0.00 0.00 0.00 84 1017.2
20260905200054 77 28 2.0 4.0 0.00 0.00 0.00 84 1017.2
20260905194549 77 23 0.0 4.0 0.00 0.00 0.00 83 1017.0
20260905193103 78 26 1.0 4.0 0.00 0.00 0.00 82 1017.1
20260905191553 78 26 1.0 4.0 0.00 0.00 0.00 81 1016.9
20260905190049 79 51 0.0 4.0 0.00 0.00 0.00 80 1016.8
20260905184544 79 52 1.0 3.0 0.00 0.00 0.00 79 1016.6
20260905183043 79 53 0.0 3.0 0.00 0.00 0.00 78 1016.5
20260905181544 80 236 0.0 1.0 0.00 0.00 0.00 76 1016.3
20260905180044 81 236 0.0 1.0 0.00 0.00 0.00 74 1016.3
20260905174541 82 236 0.0 1.0 0.00 0.00 0.00 72 1016.2
20260905173040 82 235 1.0 4.0 0.00 0.00 0.00 72 1016.1
20260905171540 82 197 2.0 5.0 0.00 0.00 0.00 72 1016.1
20260905170047 83 250 3.0 9.0 0.00 0.00 0.00 69 1016.0
20260905164541 83 229 2.0 11.0 0.00 0.00 0.00 69 1016.0
20260905163038 84 237 2.0 10.0 0.00 0.00 0.00 69 1016.1
20260905161538 84 194 4.0 9.0 0.00 0.00 0.00 71 1016.1
20260905160044 84 151 4.0 10.0 0.00 0.00 0.00 70 1016.1
20260905154537 84 249 4.0 11.0 0.00 0.00 0.00 71 1016.1
20260905153039 84 159 4.0 11.0 0.00 0.00 0.00 71 1016.3
20260905151536 84 171 5.0 13.0 0.00 0.00 0.00 71 1016.5
20260905150037 83 215 6.0 12.0 0.00 0.00 0.00 75 1016.5
20260905144543 83 288 2.0 14.0 0.00 0.00 0.00 77 1016.3
20260905143047 84 227 4.0 16.0 0.00 0.00 0.00 77 1016.5
20260905141533 84 291 6.0 17.0 0.00 0.00 0.00 76 1016.5
20260905140031 85 217 4.0 12.0 0.00 0.00 0.00 74 1016.6
20260905134529 86 224 6.0 11.0 0.00 0.00 0.00 71 1016.6
20260905133027 85 219 3.0 14.0 0.00 0.00 0.00 65 1016.8
20260905131541 85 93 2.0 11.0 0.00 0.00 0.00 67 1016.9
20260905130026 85 244 6.0 13.0 0.00 0.00 0.00 62 1017.0
20260905124529 86 248 5.0 11.0 0.00 0.00 0.00 59 1017.1
20260905123022 85 180 4.0 12.0 0.00 0.00 0.00 61 1017.0
20260905121521 86 222 5.0 10.0 0.00 0.00 0.00 59 1017.1
20260905120021 86 155 4.0 7.0 0.00 0.00 0.00 59 1017.1
20260905114535 86 221 5.0 10.0 0.00 0.00 0.00 58 1017.2
20260905113031 86 173 3.0 8.0 0.00 0.00 0.00 53 1017.3
20260905111518 87 180 3.0 8.0 0.00 0.00 0.00 51 1017.4
20260905110017 87 226 3.0 7.0 0.00 0.00 0.00 50 1017.4
20260905104520 87 196 3.0 8.0 0.00 0.00 0.00 48 1017.4
20260905103023 87 210 4.0 8.0 0.00 0.00 0.00 46 1017.5
20260905101515 86 214 2.0 7.0 0.00 0.00 0.00 48 1017.5
20260905100021 86 210 4.0 8.0 0.00 0.00 0.00 45 1017.6
20260905094512 86 227 3.0 8.0 0.00 0.00 0.00 46 1017.8
20260905093010 87 113 3.0 7.0 0.00 0.00 0.00 43 1017.7
20260905091506 86 150 3.0 9.0 0.00 0.00 0.00 46 1017.7
20260905090005 85 165 3.0 6.0 0.00 0.00 0.00 47 1017.7
20260905084503 85 194 3.0 7.0 0.00 0.00 0.00 47 1017.8
20260905083100 84 240 2.0 7.0 0.00 0.00 0.00 51 1017.7
20260905081604 84 206 3.0 6.0 0.00 0.00 0.00 53 1017.5
20260905080101 84 211 2.0 5.0 0.00 0.00 0.00 59 1017.3
20260905074553 84 227 3.0 6.0 0.00 0.00 0.00 60 1017.1
20260905073050 83 220 2.0 6.0 0.00 0.00 0.00 60 1017.1
20260905071555 82 199 1.0 3.0 0.00 0.00 0.00 60 1017.0
20260905070048 81 194 1.0 3.0 0.00 0.00 0.00 63 1017.0
20260905064549 80 196 1.0 4.0 0.00 0.00 0.00 65 1016.9
20260905063058 79 9 0.0 3.0 0.00 0.00 0.00 66 1017.0